Погода в Белореченском

Россия / Иркутская область     52°48′49″N   103°31′34″E
темп.,
°C
ветер,
м/с
пор.,
м/с
влажн.,
%
обл.,
%
осадки,
мм/ч
давл.,
гПа
погр.,
м
28 января, чт
чт2823:00−28вюв3995100 0.0 1034218
02:00−26юв41090100 0.0 1030285
05:00−24юв3889100 0.0 1026280
08:00−22юв3598100 0.3 1024216
11:00−19вюв2497100 0.8 1022210
14:00−15юв1393100 0.9 1020218
17:00−15ссв1196100 0.0 101820
20:00−15з1197100 0.7 102024
29 января, пт
пт2923:00−16ссз4995100 0.7 1023686
02:00−24ссз51296100 1.2 1027786
05:00−26сз41194100 0.5 1030688
08:00−29ссз3894100 0.6 1033430
11:00−31с1391100 0.1 1033213
14:00−27всв1292100 0.2 1030255
17:00−26вюв3696100 0.2 1025342
20:00−27вюв3898100 0.6 1024264
30 января, сб
сб3023:00−25в2598100 0.7 1023271
02:00−25юз1197100 0.9 102419
05:00−25вюв2499100 0.1 1024125
08:00−23в1199100 0.8 102458
11:00−20юв1196100 0.4 1024150
14:00−16юв2392100 0.5 1020241
17:00−16юв2396100 0.2 1019137
20:00−17с2497100 0.4 1021130
31 января, вс
вс3123:00−17сз31196100 0.3 1025629
02:00−21сз81678100 0.4 10311076
05:00−26сз71384100 0.0 1036892
08:00−27сз61288100 0.1 1042757
11:00−29сз6138691 0.0 1046658
14:00−27сз598677 0.0 1045637
17:00−28сз369177 0.0 1046378
20:00−33сз129540 0.0 104819
1 февраля, пн
пн123:00−35в11970 0.0 104719
02:00−35вюв22960 0.0 104521
05:00−35вюв22975 0.0 104134
08:00−32вюв239444 0.0 103788
11:00−28юв1388100 0.0 1032228
14:00−23юв1383100 0.0 1027338
17:00−21юв128897 0.0 1025267
20:00−22вюв119399 0.0 102620